This is the latest recevied weather packets stored in our database for station/object KJ4EBE. If no packets are shown the sender has not sent any weather packets the latest 10 day(s).
| Time | Temp. | Humidity | Pressure | Rain* | Wind** | Luminosity | Snow |
|---|---|---|---|---|---|---|---|
| 1777055620 | 32.22° C | 58% | 1006.6 hPa | 0 mm | - | 739 W/m² | - |
| 1777055316 | 31.67° C | 57% | 1006.6 hPa | 0 mm | - | 762 W/m² | - |
| 1777055015 | 31.11° C | 64% | 1006.7 hPa | 0 mm | - | 424 W/m² | - |
| 1777054711 | 31.11° C | 62% | 1006.9 hPa | 0 mm | - | 190 W/m² | - |
| 1777054408 | 31.11° C | 65% | 1006.6 hPa | 0 mm | - | 203 W/m² | - |
| 1777054106 | 31.67° C | 59% | 1006.7 hPa | 0 mm | - | 236 W/m² | - |
| 1777053802 | 31.11° C | 62% | 1006.8 hPa | 0 mm | - | 788 W/m² | - |
| 1777053501 | 31.67° C | 64% | 1006.7 hPa | 0 mm | - | 788 W/m² | - |
| 1777053198 | 31.11° C | 62% | 1006.8 hPa | 0 mm | - | 778 W/m² | - |
| 1777052894 | 30.56° C | 66% | 1007 hPa | 0 mm | - | 778 W/m² | - |
| 1777052589 | 30.56° C | 64% | 1006.9 hPa | 0 mm | - | 783 W/m² | - |
| 1777052285 | 30° C | 65% | 1007 hPa | 0 mm | - | 775 W/m² | - |
| 1777051981 | 30° C | 67% | 1007.3 hPa | 0 mm | - | 772 W/m² | - |
| 1777051678 | 30° C | 70% | 1007.1 hPa | 0 mm | - | 765 W/m² | - |
| 1777051374 | 30° C | 70% | 1007.1 hPa | 0 mm | - | 757 W/m² | - |
| 1777051070 | 30° C | 70% | 1007.2 hPa | 0 mm | - | 750 W/m² | - |
| 1777050766 | 28.89° C | 72% | 1007.2 hPa | 0 mm | - | 760 W/m² | - |
| 1777050461 | 28.89° C | 70% | 1007.3 hPa | 0 mm | - | 758 W/m² | - |
| 1777050156 | 28.89° C | 70% | 1007.3 hPa | 0 mm | - | 747 W/m² | - |
| 1777049850 | 29.44° C | 72% | 1007.3 hPa | 0 mm | - | 745 W/m² | - |
| 1777049546 | 28.89° C | 72% | 1007.3 hPa | 0 mm | - | 737 W/m² | - |
| 1777049244 | 28.89° C | 73% | 1007.3 hPa | 0 mm | - | 723 W/m² | - |
| 1777048941 | 28.89° C | 74% | 1007.2 hPa | 0 mm | - | 709 W/m² | - |
| 1777048640 | 28.33° C | 74% | 1007.2 hPa | 0 mm | - | 718 W/m² | - |
| 1777048336 | 28.33° C | 74% | 1007.2 hPa | 0 mm | - | 710 W/m² | - |
* Rain latest hour (hover to see other rain measurements)
** Current wind speed in m/s (hover to see current wind gust speed)